[[{"header":{"parameterUnit":"m.s-1","parameterCategory":1,"la1":30.2991,"la2":30.254,"lo1":-89.0895,"lo2":-89.0444,"dy":0.0017,"dx":0.0017,"nx":28,"ny":28,"refTime":"2024-03-07T03:00:00:Z","depth":0,"parameterNumber":2,"parameterNumberName":"U-component_of_WINDS"},"data":[0,0,0,0,0,0,0,0,0,0,0,0,0,0,0,0,0,0,0,0,0,0,0,0,0,0,0,0,0,0,0,0,0,0,0,0,0,0,0,0,0,0,0,0,0,0,0,0,0,0,0,0,0,0,0,0,0,0,-5.716,-5.7161,0,-5.7292,-5.7293,-5.7295,-5.7295,-5.7294,-5.7292,-5.729,-5.7423,-5.7428,-5.7433,0,0,0,0,0,0,0,0,0,0,0,0,0,-5.6907,-5.6911,-5.7159,-5.7161,-5.7163,-5.7291,-5.7293,-5.7295,-5.7296,-5.7294,-5.7292,-5.729,-5.7422,-5.7428,-5.7434,0,0,0,0,0,0,0,0,0,0,0,0,0,-5.7025,-5.6913,-5.7159,-5.7179,-5.7182,-5.7291,-5.7293,-5.7295,-5.7296,-5.7294,-5.7291,-5.7289,-5.742,-5.7427,-5.7435,-5.7533,0,0,-5.7458,-5.7461,0,0,0,0,0,0,0,0,-5.7019,-5.7035,-5.7174,-5.7178,-5.7181,-5.7275,-5.7253,-5.7375,-5.7297,-5.7253,-5.729,-5.7287,-5.7376,-5.7387,-5.7417,-5.7539,-5.7545,-5.7459,-5.7464,-5.7467,-5.7469,0,0,0,0,0,0,0,-5.701,-5.7029,-5.7212,-5.7176,-5.718,-5.718,-5.7195,-5.7276,-5.7327,-5.7256,-5.7257,-5.7272,-5.7377,-5.741,-5.742,-5.7547,-5.7459,-5.7465,-5.747,-5.7473,-5.7755,-5.7758,0,0,0,0,0,0,-5.6998,-5.7022,-5.7207,-5.7216,-5.7092,-5.7187,-5.7203,-5.7247,-5.7326,-5.7335,-5.7274,-5.7272,-5.7398,-5.7411,-5.7425,-5.7544,-5.7467,-5.7474,-5.7478,-5.7753,-5.7756,-5.7759,0,0,0,0,0,0,-5.6993,-5.7015,-5.7202,-5.7119,-5.7143,-5.7194,-5.7244,-5.7251,-5.7283,-5.734,-5.7348,-5.7298,-5.7396,-5.7414,-5.7506,-5.7548,-5.7477,-5.7484,-5.7749,-5.7754,-5.7758,-5.7783,0,0,0,0,0,0,-5.6986,-5.7013,-5.7051,-5.712,-5.7147,-5.7281,-5.7247,-5.7255,-5.7297,-5.7295,-5.7364,-5.7373,-5.7396,-5.7495,-5.7514,-5.7558,-5.749,-5.7745,-5.7751,-5.7756,-5.7778,-5.7787,-5.7795,0,0,0,0,0,-5.6977,-5.7052,-5.7053,-5.7075,-5.7196,-5.7284,-5.7299,-5.7324,-5.73,-5.7338,-5.7375,-5.7371,-5.7542,-5.7504,-5.7525,-5.7572,-5.7743,-5.775,-5.7756,-5.7774,-5.7786,-5.7795,0,0,0,0,0,0,-5.6985,-5.7061,-5.7063,-5.7163,-5.7217,-5.7284,-5.7332,-5.7335,-5.7396,-5.7392,-5.742,-5.7435,-5.7526,-5.7559,-5.7516,-5.7672,-5.7639,-5.765,-5.7646,-5.7657,-5.7665,-5.7654,-5.7497,0,0,0,0,0,-5.6999,-5.7065,-5.7128,-5.721,-5.7237,-5.728,-5.7319,-5.7334,-5.7391,-5.7413,-5.7456,-5.7511,-5.7577,-5.7619,-5.7683,-5.7785,-5.7799,-5.7828,-5.7836,-5.7843,-5.7851,-5.7906,-5.7919,-5.7781,-5.7781,-5.778,0,0,-5.7027,-5.7077,-5.7117,-5.7213,-5.7256,-5.7323,-5.7299,-5.7371,-5.742,-5.7424,-5.7513,-5.7547,-5.761,-5.7707,-5.7752,-5.7737,-5.7893,-5.7851,-5.7856,-5.7861,-5.7914,-5.7927,-5.7939,-5.7785,-5.7784,-5.7784,0,0,-5.7112,-5.7158,-5.7231,-5.7276,-5.7342,-5.7371,-5.7389,-5.7456,-5.7479,-5.7569,-5.7573,-5.7633,-5.7746,-5.7791,-5.7828,-5.7933,-5.7931,-5.7953,-5.7996,-5.805,-5.8061,-5.807,-5.8106,-5.8119,-5.7962,-5.7962,-5.7962,0,-5.7138,-5.724,-5.7268,-5.734,-5.7381,-5.739,-5.7464,-5.7506,-5.759,-5.7619,-5.7602,-5.7744,-5.7787,-5.7894,-5.792,-5.7951,-5.7971,-5.7944,-5.8057,-5.8067,-5.8077,-5.8111,-5.8124,-5.7964,-5.7964,-5.7964,-5.7964,0,-5.7268,-5.7338,-5.739,-5.7471,-5.7519,-5.7592,-5.7631,-5.7676,-5.7688,-5.7718,-5.781,-5.7863,-5.7937,-5.7965,-5.7976,-5.8074,-5.8062,-5.8051,-5.8018,-5.8091,-5.8124,-5.8137,-5.7967,-5.7966,-5.7966,-5.7965,0,0,-5.7358,-5.7457,-5.7475,-5.7512,-5.7588,-5.7642,-5.7716,-5.779,-5.7827,-5.7886,-5.7947,-5.8044,-5.8035,-5.8078,-5.8095,-5.8142,-5.822,-5.8125,-5.8127,-5.8139,-5.8329,-5.8335,-5.835,-5.8222,-5.8224,-5.8226,-5.8323,0,-5.745,-5.758,-5.7609,-5.7721,-5.7786,-5.7797,-5.7861,-5.7914,-5.7945,-5.8004,-5.8039,-5.8106,-5.809,-5.8116,-5.8163,-5.8201,-5.8258,-5.8195,-5.8277,-5.828,-5.8257,-5.8367,-5.8373,-5.8461,-5.8336,-5.8339,-5.834,0,-5.7572,-5.7635,-5.7754,-5.7822,-5.785,-5.7907,-5.7977,-5.8035,-5.8095,-5.8115,-5.8164,-5.8177,-5.8253,-5.822,-5.8325,-5.8281,-5.8317,-5.8341,-5.8345,-5.8351,-5.8312,-5.8373,-5.8491,-5.8503,-5.8361,-5.8359,-5.8358,0,-5.7623,-5.7738,-5.7823,-5.7856,-5.7937,-5.7977,-5.8013,-5.8072,-5.8115,-5.8177,-5.8204,-5.8274,-5.8312,-5.8366,-5.8397,-5.837,-5.8499,-5.8469,-5.8516,-5.8515,-5.8539,-5.8537,-5.8661,-5.8568,-5.8568,-5.8568,-5.8567,0,-5.772,-5.7792,-5.7847,-5.79,-5.7981,-5.8014,-5.8093,-5.8129,-5.8181,-5.824,-5.8255,-5.831,-5.835,-5.8411,-5.8436,-5.8519,-5.8536,-5.8553,-5.8558,-5.855,-5.8547,-5.8571,-5.8565,-5.8571,-5.8571,-5.857,-5.8569,0,-5.7789,-5.7829,-5.7923,-5.7994,-5.8014,-5.807,-5.8131,-5.8182,-5.8215,-5.829,-5.8309,-5.836,-5.8433,-5.8471,-5.8561,-5.8578,-5.867,-5.8673,-5.8649,-5.8651,-5.8695,-5.8689,-5.8836,-5.8857,-5.8752,-5.8753,-5.8754,0,-5.7846,-5.7902,-5.798,-5.8021,-5.8058,-5.8124,-5.8168,-5.8204,-5.8249,-5.8324,-5.8366,-5.844,-5.85,-5.8616,-5.866,-5.873,-5.8733,-5.878,-5.8743,-5.8733,-5.8731,-5.8726,-5.8731,-5.8785,-5.8786,-5.8787,-5.8788,0,-5.7943,-5.7961,-5.8025,-5.8096,-5.8149,-5.8206,-5.8263,-5.8296,-5.8341,-5.8391,-5.8466,-5.8513,-5.8606,-5.8679,-5.8752,-5.8789,-5.8795,-5.88,-5.8814,-5.8804,-5.8787,-5.8794,-5.8664,-5.8795,-5.8794,-5.8794,-5.8793,-5.8793,-5.8006,-5.8056,-5.8119,-5.8189,-5.8237,-5.829,-5.8341,-5.8382,-5.8445,-5.8523,-5.8542,-5.862,-5.8681,-5.878,-5.8819,-5.8881,-5.8871,-5.8892,-5.8897,-5.8901,-5.8901,-5.878,-5.8895,-5.8895,-5.8895,-5.8895,-5.8895,0,-5.8102,-5.8143,-5.8208,-5.8288,-5.8344,-5.8348,-5.8412,-5.8457,-5.8527,-5.8583,-5.8643,-5.8729,-5.88,-5.8852,-5.8924,-5.8964,-5.8969,-5.8981,-5.8977,-5.8985,-5.8907,-5.8887,-5.8976,-5.8976,-5.8976,-5.8976,-5.8976,-5.8976,-5.8158,-5.8242,-5.8268,-5.8376,-5.8417,-5.8494,-5.853,-5.8579,-5.8625,-5.872,-5.878,-5.8814,-5.8869,-5.8946,-5.9011,-5.9024,-5.9049,-5.9061,-5.9074,-5.9,-5.8991,-5.8982,-5.8963,-5.9067,-5.9067,-5.9146,-5.9147,-5.9148]},{"header":{"parameterUnit":"m.s-1","parameterCategory":1,"la1":30.2991,"la2":30.254,"lo1":-89.0895,"lo2":-89.0444,"dy":0.0017,"dx":0.0017,"nx":28,"ny":28,"refTime":"2024-03-07T03:00:00:Z","depth":0,"parameterNumber":3,"parameterNumberName":"V-component_of_WINDS"},"data":[0,0,0,0,0,0,0,0,0,0,0,0,0,0,0,0,0,0,0,0,0,0,0,0,0,0,0,0,0,0,0,0,0,0,0,0,0,0,0,0,0,0,0,0,0,0,0,0,0,0,0,0,0,0,0,0,0,0,3.0914,3.0915,0,3.0978,3.0978,3.0979,3.0994,3.0994,3.0993,3.0993,3.1055,3.1057,3.1059,0,0,0,0,0,0,0,0,0,0,0,0,0,3.0806,3.0808,3.0914,3.0915,3.0915,3.0977,3.0978,3.0979,3.0994,3.0994,3.0993,3.0993,3.1055,3.1057,3.106,0,0,0,0,0,0,0,0,0,0,0,0,0,3.0859,3.0808,3.0914,3.093,3.0933,3.0977,3.0978,3.0979,3.0994,3.0994,3.0993,3.0992,3.1054,3.1057,3.106,3.1092,0,0,3.1069,3.1071,0,0,0,0,0,0,0,0,3.0856,3.0863,3.0927,3.0929,3.0932,3.0977,3.0963,3.1017,3.0994,3.0971,3.0993,3.0992,3.103,3.1035,3.1048,3.1095,3.1097,3.107,3.1072,3.1073,3.1074,0,0,0,0,0,0,0,3.0852,3.0861,3.0939,3.0928,3.0931,3.0935,3.0942,3.0974,3.1003,3.0973,3.0974,3.0981,3.1031,3.1045,3.105,3.1098,3.107,3.1072,3.1074,3.1075,3.1179,3.118,0,0,0,0,0,0,3.0846,3.0857,3.0937,3.0941,3.0892,3.0937,3.0945,3.0963,3.1003,3.1008,3.0982,3.0982,3.104,3.1046,3.1052,3.1094,3.1073,3.1076,3.1078,3.1178,3.1179,3.118,0,0,0,0,0,0,3.0844,3.0853,3.0934,3.09,3.091,3.094,3.096,3.0965,3.0979,3.101,3.1015,3.0991,3.104,3.1048,3.1083,3.1097,3.1077,3.108,3.1177,3.1178,3.1179,3.1178,0,0,0,0,0,0,3.084,3.0852,3.0864,3.09,3.0912,3.0964,3.0961,3.0967,3.0985,3.0985,3.1019,3.1025,3.104,3.1078,3.1086,3.11,3.1082,3.1176,3.1177,3.1179,3.1177,3.1179,3.1181,0,0,0,0,0,3.0836,3.0859,3.0864,3.0874,3.0928,3.0965,3.0972,3.099,3.0986,3.0998,3.1019,3.1023,3.1094,3.1082,3.1091,3.1106,3.1175,3.1177,3.1179,3.1176,3.1178,3.1181,0,0,0,0,0,0,3.0822,3.0864,3.087,3.0905,3.0932,3.0967,3.0983,3.0991,3.1018,3.1018,3.1038,3.1046,3.1081,3.1097,3.1082,3.1141,3.1134,3.1138,3.1129,3.1132,3.1134,3.1129,3.1085,0,0,0,0,0,3.0823,3.085,3.0885,3.0913,3.0926,3.0953,3.0969,3.0982,3.1009,3.102,3.1043,3.1069,3.1098,3.1116,3.1143,3.118,3.1188,3.1195,3.1197,3.1198,3.1201,3.1225,3.1229,3.1186,3.1186,3.1186,0,0,3.0825,3.0852,3.0867,3.0911,3.0933,3.0961,3.0962,3.099,3.1012,3.1024,3.106,3.1078,3.1109,3.1146,3.1163,3.116,3.1216,3.1201,3.1202,3.1204,3.1227,3.1231,3.1235,3.1188,3.1187,3.1187,0,0,3.0844,3.0866,3.0893,3.0916,3.095,3.0968,3.0975,3.1011,3.1024,3.106,3.1071,3.1097,3.1145,3.1167,3.1185,3.1217,3.1223,3.1226,3.1236,3.1259,3.1262,3.1265,3.1278,3.1283,3.1229,3.1229,3.1229,0,3.0842,3.0885,3.0906,3.0935,3.0955,3.0971,3.0999,3.102,3.106,3.1074,3.1071,3.1135,3.1156,3.12,3.1208,3.1222,3.1231,3.1221,3.126,3.1263,3.1266,3.1279,3.1284,3.1229,3.1229,3.1229,3.1229,0,3.0882,3.0912,3.093,3.0971,3.0993,3.1022,3.1048,3.1068,3.108,3.1099,3.1137,3.1165,3.12,3.1211,3.1221,3.1258,3.1255,3.1256,3.1249,3.127,3.1283,3.1288,3.1229,3.1229,3.1229,3.1229,0,0,3.0889,3.0946,3.0952,3.0973,3.1014,3.1037,3.1068,3.1104,3.1122,3.1151,3.1178,3.122,3.1222,3.1243,3.1256,3.1276,3.1303,3.1275,3.1276,3.128,3.1347,3.1347,3.1352,3.1308,3.1309,3.131,3.1345,0,3.0914,3.097,3.0992,3.1037,3.1067,3.1084,3.1111,3.114,3.1159,3.1187,3.1209,3.1239,3.1239,3.1252,3.1272,3.1295,3.1317,3.1293,3.1334,3.1335,3.1326,3.1359,3.1357,3.139,3.135,3.1351,3.1352,0,3.0948,3.0981,3.103,3.1071,3.1084,3.1108,3.1145,3.1171,3.1205,3.1218,3.1243,3.1257,3.1291,3.1283,3.1331,3.1315,3.1333,3.1348,3.1349,3.1354,3.1344,3.1365,3.14,3.1405,3.1359,3.1359,3.1358,0,3.0951,3.1007,3.1044,3.1061,3.1109,3.1127,3.1147,3.1181,3.1202,3.1235,3.1249,3.1285,3.1304,3.1331,3.1354,3.1346,3.1401,3.1395,3.1414,3.1413,3.1424,3.1423,3.1463,3.1435,3.1435,3.1435,3.1435,0,3.0976,3.1006,3.1047,3.107,3.1105,3.1131,3.1164,3.1186,3.1217,3.1245,3.1262,3.1288,3.1317,3.1347,3.1365,3.1404,3.1412,3.1424,3.1429,3.1423,3.1422,3.1435,3.1434,3.1436,3.1436,3.1436,3.1435,0,3.0984,3.1012,3.1055,3.1099,3.1111,3.1135,3.1173,3.1196,3.1219,3.1254,3.1264,3.1299,3.1336,3.1362,3.1409,3.1421,3.1463,3.1467,3.1452,3.1455,3.1473,3.1471,3.1523,3.1533,3.1497,3.1498,3.1498,0,3.0998,3.1022,3.107,3.1091,3.1113,3.1146,3.1169,3.1197,3.122,3.1263,3.1282,3.1321,3.1353,3.1412,3.1441,3.1478,3.1483,3.15,3.1489,3.1484,3.1485,3.1484,3.1487,3.1501,3.1501,3.1501,3.1501,0,3.102,3.1034,3.1067,3.1107,3.1135,3.1167,3.1199,3.1216,3.1249,3.1275,3.1315,3.134,3.1391,3.1429,3.147,3.1492,3.1503,3.1505,3.1512,3.1506,3.1497,3.1504,3.1457,3.1503,3.1503,3.1503,3.1503,3.1503,3.1032,3.1056,3.1094,3.1132,3.116,3.1191,3.1217,3.1244,3.1277,3.1321,3.1336,3.1377,3.1414,3.147,3.1493,3.1526,3.1525,3.1534,3.1536,3.1538,3.1539,3.1492,3.1533,3.1533,3.1533,3.1533,3.1533,0,3.1056,3.1083,3.1118,3.1164,3.1195,3.1205,3.1242,3.1267,3.1304,3.1338,3.1371,3.1418,3.1457,3.149,3.1531,3.1551,3.1558,3.1561,3.156,3.1565,3.1537,3.1528,3.1556,3.1556,3.1556,3.1556,3.1556,3.1556,3.1072,3.1114,3.1133,3.119,3.1216,3.1258,3.1279,3.1308,3.1336,3.1389,3.1422,3.1445,3.1479,3.1523,3.156,3.1569,3.1584,3.1586,3.1597,3.1569,3.1567,3.1564,3.1556,3.1589,3.1589,3.1623,3.1623,3.1623]}]]